Location: Chanteloup
(48.8560°N, 2.7390°E)
Time: 13:06:13
(UTC+00:00)

Cosmos 2251 Rocket - Pass Details

Date: 24 October 2021
Orbit: 765 x 791 km, 74.0° (Epoch: 05 December)

Event Time Altitude Azimuth Distance (km) Brightness Sun altitude
Rises 18:09:45 0° 337° (NNW) 3,254 7.0 -15.0°
Reaches altitude 10° 18:12:09 10° 340° (NNW) 2,320 6.2 -15.4°
Maximum altitude 18:17:25 73° 66° (ENE) 804 3.4 -16.3°
Drops below altitude 10° 18:22:37 10° 151° (SSE) 2,298 5.7 -17.1°
Enters shadow 18:23:32 - 152° (SSE) 2,649 6.0 -17.3°
